User: anonymous   Login
Location: Albany
(35.0000°S, 118.0000°E)
Time: 11:41:19
(UTC-04:00)
Language:

Atlas Centaur 2 - Orbit

View from above orbital plane
View from above orbital plane
View from above satellite
View from above satellite

Ground track
Ground track

The orbit data is extracted from the following two-line orbital elements,

1 00694U 63047A   15108.53953108  .00001716  00000-0  21721-3 0  9999
2 00694 030.3560 191.5587 0592777 017.1082 094.9218 14.00876518571703
Epoch (UTC): 18 April 2015 12:56:55
Eccentricity: 0.0592777
inclination: 30.3560°
perigee height: 460 km
apogee height: 1321 km
right ascension of ascending node: 191.5587°
argument of perigee: 17.1082°
revolutions per day: 14.00876518
mean anomaly at epoch: 94.9218°
orbit number at epoch: 57170

The dashed part of the orbit path shows where the satellite is in the earth's shadow,  

DLR